Weather History for Milwaukee Timmerman, WI

Change the Weather History Date:

Monday, February 25, 2013

  Actual Average Record
Temperature  
Mean Temperature 29 °F -  
Max Temperature 39 °F 33 °F 54 °F (1957)
Min Temperature 19 °F 19 °F -10 °F (1967)
Degree Days  
Heating Degree Days 36    
Moisture  
Dew Point 23 °F    
Average Humidity 85    
Maximum Humidity 100    
Minimum Humidity 49    
Precipitation  
Precipitation 0.00 in - - ()
Sea Level Pressure  
Sea Level Pressure 30.11 in    
Wind  
Wind Speed 1 mph (ESE)    
Max Wind Speed 9 mph    
Max Gust Speed -    
Visibility 6 miles    
Events Fog    
Averages and records for this station are not official NWS values.
T = Trace of Precipitation, MM = Missing Value Source: NWS Daily Summary

Daily Weather History Graph

Daily Weather History Graph

Search for Another Location

Airport:

Trip Planner

Search our weather history database for the weather conditions in past years. The results will help you decide how hot, cold, wet, or windy it might be!

Date:

Astronomy

Feb. 25, 2013 Rise Set
Actual Time 6:34 AM CST 5:36 PM CST
Civil Twilight 6:05 AM CST 6:05 PM CST
Nautical Twilight 5:32 AM CST 6:38 PM CST
Astronomical Twilight 4:59 AM CST 7:11 PM CST
Moon 5:51 PM CST (2/25) 6:03 AM CST (2/25)
Length of Visible Light 11h 59m
Length of Day
11h 02m
Full, 100% of the Moon is Illuminated
Feb 25
Full
Feb 25
Full
Mar 4
Last Quarter
Mar 11
New
Mar 19
First Quarter

Hourly Weather History & Observations

Time (CST) Temp. Windchill Dew Point Humidity Pressure Visibility Wind Dir Wind Speed Gust Speed Precip Events Conditions
12:15 AM 21.2 °F - 19.4 °F 93% 30.14 in 0.2 mi Calm Calm - N/A Fog Light Freezing Fog
12:35 AM 21.2 °F - 19.4 °F 93% 30.14 in 4.0 mi Calm Calm - N/A   Clear
12:55 AM 21.2 °F - 19.4 °F 93% 30.14 in 4.0 mi Calm Calm - N/A   Clear
1:15 AM 19.4 °F - 17.6 °F 93% 30.15 in 4.0 mi Calm Calm - N/A   Clear
1:35 AM 19.4 °F - 19.4 °F 100% 30.15 in 4.0 mi Calm Calm - N/A   Clear
1:55 AM 21.2 °F - 19.4 °F 93% 30.14 in 3.0 mi Calm Calm - N/A   Clear
2:15 AM 21.2 °F - 19.4 °F 93% 30.14 in 3.0 mi Calm Calm - N/A   Clear
2:35 AM 19.4 °F - 17.6 °F 93% 30.14 in 2.5 mi Calm Calm - N/A   Clear
2:55 AM 19.4 °F - 17.6 °F 93% 30.14 in 3.0 mi Calm Calm - N/A   Clear
3:15 AM 19.4 °F - 17.6 °F 93% 30.14 in 3.0 mi Calm Calm - N/A   Clear
3:35 AM 19.4 °F - 17.6 °F 93% 30.14 in 4.0 mi Calm Calm - N/A   Mostly Cloudy
3:55 AM 19.4 °F - 17.6 °F 93% 30.14 in 4.0 mi Calm Calm - N/A   Overcast
4:15 AM 21.2 °F - 19.4 °F 93% 30.13 in 4.0 mi Calm Calm - N/A   Overcast
4:35 AM 21.2 °F - 19.4 °F 93% 30.14 in 5.0 mi Calm Calm - N/A   Overcast
4:55 AM 19.4 °F - 19.4 °F 100% 30.14 in 5.0 mi Calm Calm - N/A   Overcast
5:15 AM 19.4 °F - 19.4 °F 100% 30.14 in 5.0 mi Calm Calm - N/A   Scattered Clouds
5:35 AM 19.4 °F - 17.6 °F 93% 30.14 in 5.0 mi Calm Calm - N/A   Mostly Cloudy
5:55 AM 21.2 °F - 19.4 °F 93% 30.15 in 5.0 mi Calm Calm - N/A   Overcast
6:45 AM 21.2 °F - 19.4 °F 93% 30.16 in 4.0 mi Calm Calm - N/A   Overcast
7:45 AM 24.8 °F - 21.2 °F 86% 30.16 in 5.0 mi Calm Calm - N/A   Clear
8:45 AM 26.6 °F - 23.0 °F 86% 30.17 in 5.0 mi Calm Calm - N/A   Clear
9:45 AM 33.8 °F - 23.0 °F 65% 30.16 in 10.0 mi Calm Calm - N/A   Clear
10:50 AM 35.6 °F 29.9 °F 21.2 °F 56% 30.14 in 10.0 mi South 6.9 mph - N/A   Clear
11:45 AM 37.4 °F 32.8 °F 21.2 °F 52% 30.14 in 10.0 mi South 5.8 mph - N/A   Scattered Clouds
12:45 PM 39.2 °F 34.2 °F 21.2 °F 49% 30.13 in 10.0 mi SSE 6.9 mph - N/A   Mostly Cloudy
1:45 PM 39.2 °F 35.0 °F 23.0 °F 52% 30.11 in 10.0 mi South 5.8 mph - N/A   Clear
2:45 PM 39.2 °F 34.2 °F 24.8 °F 56% 30.09 in 10.0 mi East 6.9 mph - N/A   Clear
3:45 PM 37.4 °F 30.8 °F 24.8 °F 60% 30.09 in 10.0 mi SE 9.2 mph - N/A   Clear
4:45 PM 35.6 °F 29.2 °F 24.8 °F 65% 30.09 in 10.0 mi ESE 8.1 mph - N/A   Clear
5:45 PM 33.8 °F 29.6 °F 24.8 °F 70% 30.08 in 10.0 mi ESE 4.6 mph - N/A   Clear
6:45 PM 32.0 °F - 26.6 °F 80% 30.09 in 10.0 mi Calm Calm - N/A   Clear
7:45 PM 32.0 °F 28.7 °F 26.6 °F 80% 30.08 in 10.0 mi ENE 3.5 mph - N/A   Clear
8:15 PM 32.0 °F 28.7 °F 28.4 °F 87% 30.06 in 7.0 mi NE 3.5 mph - N/A   Clear
8:35 PM 32.0 °F - 28.4 °F 87% 30.06 in 7.0 mi Calm Calm - N/A   Clear
8:45 PM 30.2 °F - 26.6 °F 86% 30.06 in 10.0 mi Calm Calm - N/A   Clear
8:55 PM 32.0 °F 28.7 °F 28.4 °F 87% 30.05 in 7.0 mi East 3.5 mph - N/A   Clear
9:15 PM 32.0 °F - 28.4 °F 87% 30.05 in 7.0 mi Calm Calm - N/A   Clear
9:35 PM 32.0 °F - 28.4 °F 87% 30.06 in 10.0 mi Calm Calm - N/A   Clear
9:55 PM 28.4 °F - 26.6 °F 93% 30.07 in 7.0 mi Calm Calm - N/A   Clear
10:15 PM 30.2 °F 25.4 °F 28.4 °F 93% 30.06 in 7.0 mi North 4.6 mph - N/A   Clear
10:35 PM 30.2 °F - 26.6 °F 86% 30.07 in 7.0 mi Calm Calm - N/A   Clear
10:55 PM 28.4 °F - 26.6 °F 93% 30.07 in 7.0 mi Calm Calm - N/A   Clear
11:15 PM 30.2 °F - 28.4 °F 93% 30.06 in 7.0 mi Calm Calm - N/A   Clear
11:35 PM 30.2 °F - 28.4 °F 93% 30.06 in 7.0 mi Calm Calm - N/A   Clear
11:55 PM 30.2 °F 26.7 °F 26.6 °F 86% 30.05 in 10.0 mi NNE 3.5 mph - N/A   Clear